Other Public Products
Issued by NWS Charleston, SC

Current Version | Previous Version | Graphics & Text | Print | Product List | Glossary On
Versions: 1 2 3 4 5 6 7 8 9 10 11 12 13 14 15 16 17 18 19 20 21 22 23 24 25 26 27 28 29 30 31 32 33 34 35 36 37 38 39 40 41 42 43 44 45 46 47 48 49 50
000
FPUS82 KCHS 220910
OPUCHS

TEST...KCHS/KSAV Gateway Observations...TEST
National Weather Service Charleston SC
400 AM EST WED FEB 22 2017

NOTE: "fair" indicates few or no clouds below 12,000 feet with no
significant weather and/or obstructions to visibility.

SCZ050-WAZ558-NCZ071-TXZ119-213-PAZ071-DCZ001-FLZ074-172-MI076-
NYZ176-178-MAZ016-IL014-TNZ027-NJZ106-GAZ044-MD014-221000-
...Gateway Observations for Charleston International...

CITY           SKY/WX    TMP DP  RH WIND       PRES   REMARKS
Chas Airport   CLOUDY    60  56  86 E9        29.96F
Seattle        CLOUDY    39  36  89 E6        30.16R WCI  35
Charlotte      CLOUDY    53  50  89 N5        30.01S
Dallas DFW     CLEAR     51  41  68 CALM      29.90F
Dallas Love    CLEAR     51  44  77 CALM      29.92F
Philladelphia  CLOUDY    42  36  79 CALM      30.06F
Wash National  CLOUDY    46  40  79 S7        30.04F
Baltimore      CLOUDY    44  39  82 CALM      30.04F
Miami          MOCLDY    69  64  84 SE12      29.83F
Detroit        FOG       43  43 100 CALM      29.88F VSB 1/2
Newark         CLOUDY    42  34  73 S6        30.07F
Laguardia      CLOUDY    45  35  68 SW7       30.08R
J F K          CLOUDY    41  38  89 SW6       30.10R
Boston Logan   CLOUDY    39  32  76 SW14      30.04F WCI  31
Ft. Lauderdale MOCLDY    73  64  73 SE15      29.82F
Chicago O`Hare FOG       55  53  93 S10       29.82S VSB 3/4
Chicago Midway MOCLDY    53  50  89 S6        29.83F FOG
Houston Bush   CLEAR     57  48  72 NW7       29.90S
Houston Hobby  CLEAR     57  49  74 W3        29.89F
Nashville      CLOUDY    57  55  93 NE3       29.90F FOG
Atlanta        LGT RAIN  61  60  97 E8        29.88F

$$

GAZ044-118-TXZ119-213-NCZ071-DCZ001-MDZ014-506-PAZ021-071-NJZ106-
NYZ176-178-MAZ106-OHZ011-021-055-MIZ076-KYZ091-ILZ014-INZ047-
MNZ060-221000-
...Gateway Observations for Savannah International...

CITY           SKY/WX    TMP DP  RH WIND       PRES   REMARKS
Savannah Arpt  CLOUDY    63  60  90 E9        29.92F
Atlanta        LGT RAIN  61  60  97 E8        29.88F
Charlotte      CLOUDY    53  50  89 N5        30.01S
Dallas DFW     CLEAR     51  41  68 CALM      29.90F
Houston Bush   CLEAR     57  48  72 NW7       29.90S
Wash National  CLOUDY    46  40  79 S7        30.04F
Wash Dulles    CLOUDY    46  37  71 CALM      30.02F
Baltimore      CLOUDY    44  39  82 CALM      30.04F
Philadelphia   CLOUDY    42  36  79 CALM      30.06F
Newark         CLOUDY    42  34  73 S6        30.07F
Laguardia      CLOUDY    45  35  68 SW7       30.08R
J F K          CLOUDY    41  38  89 SW6       30.10R
Boston         CLOUDY    39  32  76 SW14      30.04F WCI  31
Pittsburg      CLOUDY    54  45  71 CALM      29.93S
Akron          CLOUDY    53  46  77 CALM      29.92S
Cleveland      CLOUDY    57  47  69 S8        29.93F
Cincinnati     CLOUDY    56  56 100 S8        29.91F FOG
Columbus       CLOUDY    50  50 100 CALM      29.93S FOG
Detroit        FOG       43  43 100 CALM      29.88F VSB 1/2
Chicago O`Hare FOG       55  53  93 S10       29.82S VSB 3/4
Minneapolis    MOCLDY    41  39  93 CALM      29.65F
Indianapolis   MOCLDY    54  53  97 S6        29.89R FOG

$$




USA.gov is the U.S. government's official web portal to all federal, state and local government web resources and services.